DW3560 Weather Reports


time (UTC)temp
F
wind
direction
speed
knots
gust
knots
rain 1hr
in
rain 24hr
in
rain mn
in
humidity
%
barometer
mb
20260504201023 63 312 1.7 7.0 0.00 0.00 0.00 66 1015.0
20260504200502 63 256 1.7 7.0 0.00 0.00 0.00 64 1015.0
20260504200002 64 258 1.7 5.2 0.00 0.00 0.00 64 1015.0
20260504195502 64 316 1.7 7.0 0.00 0.00 0.00 66 1015.0
20260504195002 64 264 1.7 7.0 0.00 0.00 0.00 65 1015.0
20260504194502 63 245 1.7 7.8 0.00 0.00 0.00 64 1015.0
20260504194002 63 245 1.7 7.8 0.00 0.00 0.00 64 1015.0
20260504193502 63 235 0.9 7.0 0.00 0.00 0.00 64 1015.0
20260504193002 63 330 0.9 5.2 0.00 0.00 0.00 65 1015.0
20260504192523 63 329 0.9 5.2 0.00 0.00 0.00 65 1015.0
20260504192023 63 281 0.9 4.3 0.00 0.00 0.00 66 1015.0
20260504191502 63 278 1.7 8.7 0.00 0.00 0.00 65 1015.0
20260504191002 63 253 0.9 4.3 0.00 0.00 0.00 64 1015.1
20260504190502 63 272 0.9 4.3 0.00 0.00 0.00 65 1015.1
20260504190002 62 335 0.9 4.3 0.00 0.00 0.00 66 1015.1
20260504185502 62 327 0.9 5.2 0.00 0.00 0.00 67 1015.1
20260504185002 62 279 0.9 5.2 0.00 0.00 0.00 65 1015.1
20260504184502 62 342 0.9 4.3 0.00 0.00 0.00 68 1015.1
20260504184002 61 352 1.7 5.2 0.00 0.00 0.00 68 1015.1
20260504183502 61 344 1.7 5.2 0.00 0.00 0.00 68 1015.1
20260504183023 61 338 0.9 4.3 0.00 0.00 0.00 70 1015.1
20260504182502 61 341 1.7 4.3 0.00 0.00 0.00 70 1015.1
20260504182002 60 347 0.9 7.0 0.00 0.00 0.00 69 1015.1
20260504181502 60 348 0.9 7.0 0.00 0.00 0.00 69 1015.1
20260504181002 60 349 0.9 7.0 0.00 0.00 0.00 71 1014.8
20260504180523 60 343 1.7 7.0 0.00 0.00 0.00 71 1014.8
20260504180023 60 275 1.7 5.2 0.00 0.00 0.00 72 1014.8
20260504175502 59 238 1.7 4.3 0.00 0.00 0.00 71 1014.8
20260504175002 60 280 0.9 3.5 0.00 0.00 0.00 71 1014.8
20260504174502 60 312 0.9 3.5 0.00 0.00 0.00 73 1014.8
20260504174023 59 302 0.9 3.5 0.00 0.00 0.00 73 1014.8
20260504173502 59 251 0.9 3.5 0.00 0.00 0.00 74 1014.8
20260504173002 58 216 0.9 4.3 0.00 0.00 0.00 75 1014.8
20260504172502 58 228 0.9 4.3 0.00 0.00 0.00 75 1014.8
20260504172002 57 218 1.7 5.2 0.00 0.00 0.00 76 1014.8
20260504171502 57 209 1.7 5.2 0.00 0.00 0.00 77 1014.8
20260504171003 57 205 2.6 5.2 0.00 0.00 0.00 76 1014.0
20260504170502 57 187 2.6 5.2 0.00 0.00 0.00 77 1014.0
20260504151023 52 148 0.9 3.5 0.00 0.00 0.00 84 1014.0
20260504150502 51 153 0.9 3.5 0.00 0.00 0.00 85 1014.0
20260504141002 50 144 0.9 1.7 0.00 0.00 0.00 87 1014.0
20260504140502 50 145 0.9 2.6 0.00 0.00 0.00 87 1014.0
20260504130502 50 190 0.9 1.7 0.00 0.00 0.00 87 1014.0
20260504110502 50 169 0.0 1.7 0.00 0.00 0.00 90 1014.0
20260504100502 51 226 0.0 1.7 0.00 0.00 0.00 90 1014.0
20260504082003 50 189 0.9 3.5 0.00 0.00 0.00 89 1014.3
20260504081502 50 189 0.9 3.5 0.00 0.00 0.00 89 1014.3
20260504081002 50 190 0.9 2.6 0.00 0.00 0.00 89 1014.3
20260504080502 50 188 0.0 1.7 0.00 0.00 0.00 89 1014.3
20260504050502 52 254 0.9 3.5 0.00 0.00 0.00 85 1013.7
20260504050024 52 258 0.9 2.6 0.00 0.00 0.00 84 1013.7
20260504045503 52 239 0.0 2.6 0.00 0.00 0.00 84 1013.7
20260504045003 53 238 0.9 4.3 0.00 0.00 0.00 84 1013.7
20260504044503 53 242 0.9 4.3 0.00 0.00 0.00 83 1013.7
20260504044002 53 245 0.0 1.7 0.00 0.00 0.00 83 1013.7
20260504043503 53 245 0.0 1.7 0.00 0.00 0.00 83 1013.7
20260504043003 53 245 0.0 2.6 0.00 0.00 0.00 83 1013.7
20260504042503 53 247 0.9 2.6 0.00 0.00 0.00 82 1013.7
20260504042003 53 239 0.9 3.5 0.00 0.00 0.00 82 1013.7
20260504041503 53 229 0.9 3.5 0.00 0.00 0.00 82 1013.7
20260504041003 53 236 0.9 3.5 0.00 0.00 0.00 81 1013.1
20260504040502 53 239 0.9 3.5 0.00 0.00 0.00 81 1013.1
20260504040003 53 246 0.9 2.6 0.00 0.00 0.00 80 1013.1
20260504035502 53 247 0.9 2.6 0.00 0.00 0.00 80 1013.1
20260504035003 53 246 0.0 1.7 0.00 0.00 0.00 80 1013.1
20260504034503 53 239 0.0 1.7 0.00 0.00 0.00 80 1013.1
20260504034007 54 243 0.0 3.5 0.00 0.00 0.00 80 1013.1
20260504033503 54 260 0.9 3.5 0.00 0.00 0.00 79 1013.1
20260504033002 54 264 0.9 2.6 0.00 0.00 0.00 79 1013.1
20260504032504 54 263 0.9 5.2 0.00 0.00 0.00 79 1013.1
20260504032003 54 264 0.9 5.2 0.00 0.00 0.00 79 1013.1
20260504031503 54 242 0.0 4.3 0.00 0.00 0.00 79 1013.1
20260504031003 54 234 0.9 7.0 0.00 0.00 0.00 79 1012.5
20260504030503 54 239 0.9 7.0 0.00 0.00 0.00 79 1012.5
20260504030003 54 267 0.9 4.3 0.00 0.00 0.00 79 1012.5
20260504025524 55 255 0.9 7.0 0.00 0.00 0.00 79 1012.5
20260504025003 55 245 0.9 7.0 0.00 0.00 0.00 79 1012.5
20260504024503 55 221 0.9 6.1 0.00 0.00 0.00 79 1012.5
20260504024003 55 236 0.9 7.0 0.00 0.00 0.00 78 1012.5
20260504023503 55 232 0.9 7.0 0.00 0.00 0.00 78 1012.5
20260504023024 55 255 0.9 4.3 0.00 0.00 0.00 77 1012.5
20260504022524 56 303 0.0 4.3 0.00 0.00 0.00 78 1012.5
20260504022002 56 301 0.9 3.5 0.00 0.00 0.00 78 1012.5
20260504021524 56 293 0.9 3.5 0.00 0.00 0.00 77 1012.5
20260504021024 56 339 0.0 3.5 0.00 0.00 0.00 77 1012.6
20260504020503 56 347 0.9 3.5 0.00 0.00 0.00 77 1012.6
20260504020024 56 339 0.9 3.5 0.00 0.00 0.00 77 1012.6
20260504015502 56 324 0.9 7.8 0.00 0.00 0.00 77 1012.6
20260504015024 56 306 0.9 7.8 0.00 0.00 0.00 77 1012.6
20260504014524 56 290 0.9 7.0 0.00 0.00 0.00 76 1012.6
20260504014003 57 332 0.9 4.3 0.00 0.00 0.00 76 1012.6
20260504013502 57 344 0.9 3.5 0.00 0.00 0.00 75 1012.6
20260504013024 57 260 0.9 3.5 0.00 0.00 0.00 75 1012.6
20260504012503 57 249 0.9 3.5 0.00 0.00 0.00 76 1012.6
20260504012003 57 255 0.9 3.5 0.00 0.00 0.00 76 1012.6
20260504011503 57 233 0.9 3.5 0.00 0.00 0.00 75 1012.6
20260504011003 57 204 0.9 3.5 0.00 0.00 0.00 74 1012.6
20260504010503 57 220 0.9 3.5 0.00 0.00 0.00 74 1012.6
20260504010003 57 242 0.9 3.5 0.00 0.00 0.00 74 1012.6
20260504005503 57 268 0.9 4.3 0.00 0.00 0.00 74 1012.6
20260504005003 58 259 0.9 4.3 0.00 0.00 0.00 74 1012.6
20260504004503 58 250 0.9 4.3 0.00 0.00 0.00 74 1012.6
20260504004003 58 247 1.7 6.1 0.00 0.00 0.00 74 1012.6
20260504003503 58 240 0.9 6.1 0.00 0.00 0.00 73 1012.6
20260504003003 58 252 0.9 2.6 0.00 0.00 0.00 73 1012.6
20260504002503 59 250 0.9 4.3 0.00 0.00 0.00 73 1012.6
20260504002003 59 248 0.9 7.0 0.00 0.00 0.00 72 1012.6
20260504001503 58 242 1.7 7.0 0.00 0.00 0.00 72 1012.6
20260504001003 59 238 2.6 7.0 0.00 0.00 0.00 71 1012.6
20260504000503 59 248 2.6 7.0 0.00 0.00 0.00 70 1012.6
20260504000003 59 263 1.7 6.1 0.00 0.00 0.00 71 1012.6
20260503235503 59 242 1.7 7.0 0.00 0.00 0.00 72 1012.6
20260503235003 59 236 2.6 7.8 0.00 0.00 0.00 71 1012.6
20260503234524 59 241 1.7 7.8 0.00 0.00 0.00 72 1012.6
20260503234024 59 236 1.7 5.2 0.00 0.00 0.00 72 1012.6
20260503233503 59 234 1.7 9.6 0.00 0.00 0.00 72 1012.6
20260503233003 59 239 1.7 9.6 0.00 0.00 0.00 73 1012.6
20260503232503 59 242 1.7 7.0 0.00 0.00 0.00 73 1012.6
20260503232003 59 239 0.9 6.1 0.00 0.00 0.00 73 1012.6
20260503231524 59 243 0.9 3.5 0.00 0.00 0.00 73 1012.6
20260503231003 58 240 0.9 5.2 0.00 0.00 0.00 74 1012.6
20260503230503 58 233 1.7 5.2 0.00 0.00 0.00 74 1012.6
20260503230024 58 230 1.7 6.1 0.00 0.00 0.00 73 1012.6
20260503225524 58 231 1.7 6.1 0.00 0.00 0.00 73 1012.6
20260503225003 58 237 1.7 6.1 0.00 0.00 0.00 73 1012.6
20260503224503 59 226 1.7 4.3 0.00 0.00 0.00 73 1012.6
20260503224003 59 257 0.9 4.3 0.00 0.00 0.00 73 1012.6
20260503223503 59 285 0.9 3.5 0.00 0.00 0.00 73 1012.6
20260503223003 59 247 0.9 5.2 0.00 0.00 0.00 73 1012.6
20260503222503 59 248 0.9 5.2 0.00 0.00 0.00 73 1012.6
20260503222003 60 266 1.7 4.3 0.00 0.00 0.00 72 1012.6
20260503221503 60 294 0.9 4.3 0.00 0.00 0.00 72 1012.6
20260503221003 60 268 0.9 4.3 0.00 0.00 0.00 71 1012.7
20260503220503 60 243 1.7 4.3 0.00 0.00 0.00 70 1012.7
20260503220003 61 264 1.7 5.2 0.00 0.00 0.00 70 1012.7
20260503215503 61 262 1.7 5.2 0.00 0.00 0.00 71 1012.7
20260503215003 61 246 1.7 7.0 0.00 0.00 0.00 72 1012.7
20260503214503 60 243 1.7 7.0 0.00 0.00 0.00 71 1012.7
20260503214003 60 239 1.7 4.3 0.00 0.00 0.00 72 1012.7
20260503213524 60 263 0.9 3.5 0.00 0.00 0.00 73 1012.7
20260503213024 60 353 0.9 3.5 0.00 0.00 0.00 74 1012.7
20260503212524 60 250 0.9 4.3 0.00 0.00 0.00 74 1012.7
20260503212003 60 227 0.9 4.3 0.00 0.00 0.00 73 1012.7
20260503211524 60 246 0.9 4.3 0.00 0.00 0.00 73 1012.7
20260503211003 60 262 0.9 4.3 0.00 0.00 0.00 73 1012.7
20260503210503 60 263 0.9 3.5 0.00 0.00 0.00 73 1012.7
20260503210024 60 258 0.9 6.1 0.00 0.00 0.00 72 1012.7
20260503205503 60 230 0.9 6.1 0.00 0.00 0.00 72 1012.7
20260503205003 60 226 1.7 4.3 0.00 0.00 0.00 72 1012.7
20260503204503 60 238 1.7 6.1 0.00 0.00 0.00 72 1012.7
20260503204003 60 244 2.6 7.0 0.00 0.00 0.00 72 1012.7
20260503203503 60 240 2.6 7.0 0.00 0.00 0.00 70 1012.7
20260503203003 61 231 2.6 7.0 0.00 0.00 0.00 70 1012.7
20260503202503 61 228 1.7 7.0 0.00 0.00 0.00 70 1012.7
20260503202003 61 241 1.7 7.8 0.00 0.00 0.00 71 1012.7
20260503201503 60 242 1.7 7.8 0.00 0.00 0.00 73 1012.7